Regional Weather Roundup
Issued by NWS Newport/Morehead, NC

Current Version | Previous Version | Text Only | Print | Product List | Glossary On
Versions: 1 2 3 4 5 6 7 8 9 10 11 12 13 14 15 16 17 18 19 20 21 22 23 24 25 26 27 28 29 30 31 32 33 34 35 36 37 38 39 40 41 42 43 44 45 46 47 48 49 50
000
ASUS42 KMHX 221213
RWRMHX
WEATHER ROUNDUP FOR EASTERN NORTH CAROLINA
NATIONAL WEATHER SERVICE NEWPORT/MOREHEAD CITY NC
800 AM EDT SUN OCT 22 2017

NOTE: "FAIR" INDICATES FEW OR NO CLOUDS BELOW 12,000 FEET
WITH NO SIGNIFICANT WEATHER AND/OR OBSTRUCTIONS TO VISIBILITY

NCZ015>017-031-032-045>047-102-103-221300-
NORTH COAST

CITY           SKY/WX    TMP DP  RH WIND       PRES   REMARKS
EDENTON        CLOUDY    54  52  93 CALM      30.37R
ELIZABETH CITY PTCLDY    59  59 100 N3        30.37R
KITTY HAWK     MOSUNNY   66  63  89 CALM      30.35R
MANTEO         PTCLDY   N/A N/A N/A E5        30.36R

$$

NCZ045>047-081-094-103-104-221300-
CENTRAL COAST

CITY           SKY/WX    TMP DP  RH WIND       PRES   REMARKS
FRISCO         CLOUDY    69  63  81 NE6       30.35R

$$

NCZ095-097-098-100-101-221300-
SOUTHERN COAST

CITY           SKY/WX    TMP DP  RH WIND       PRES   REMARKS
BEAUFORT       CLEAR     63  63 100 NE6       30.34R
CEDAR ISLAND   NOT AVBL
JACKSONVILLE   PTCLDY    59  59 100 CALM      30.34R
PINEY ISLAND     N/A    N/A N/A N/A N7        30.34R
WILMINGTON     CLOUDY    61  58  90 NE5       30.33R


$$

NCZ011>013-027>030-043-044-078>080-089-090>093-098-221300-
COASTAL PLAIN

CITY           SKY/WX    TMP DP  RH WIND       PRES   REMARKS
AHOSKIE        CLOUDY    49  49 100 CALM      30.37R
CLINTON        PTCLDY    54  54 100 CALM      30.35R
ELIZABETHTOWN  NOT AVBL
GOLDSBORO      NOT AVBL
GREENVILLE     FOG       52  50  93 CALM      30.36R VSB 1/4
HAVELOCK       PTCLDY    61  61 100 CALM      30.36R
KENANSVILLE    CLOUDY    50  48  93 CALM      30.35R
KINSTON        FOG       54  54 100 CALM      30.36R VSB 1
NEW BERN       PTCLDY    56  56 100 CALM      30.36R
RICHLANDS      PTCLDY    58  58 100 NE5       30.35R FOG
ROCKY MOUNT    FOG       53  53 100 CALM      30.37R VSB 3/4
WASHINGTON     CLOUDY    53  52  95 CALM      30.36R
WHITEVILLE     PTCLDY    58  57  98 CALM      30.32R FOG

$$

AMZ130-135-150-152-154-156-158-170-250-252-270-ANZ085-086-088-633-658-670-221300-
MARINE OBSERVATIONS

STATION/POSITION TIME  TEMP    WIND        PRES    WAVE   SWELL
                       AIR SEA DIR/SP/G            HT/PER HT/PER
                 (UTC) (F)     (DEG/KT/KT) (MB)    (FT/S) (FT/S)
CHESAPEAKE LIGHT NOT AVBL
64 E VA BEACH    1150   69 68   70/  6/  8 1028.8    2/ 8   2/ 8
DUCK             1148   69 70   60/  7/  8 1027.7
2 E DUCK         1200      69                N/A     2/ 8
OREGON INLET     1142   69 71   30/  4/  6 1027.7
13E OREGON INLT  1148      73                N/A     2/ 8   2/ 8
HATTERAS CG      1148   69 72   60/  4/  5 1027.3
DIAMOND BUOY     1150   76 81   70/  4/  8 1027.2    3/ 8   3/ 8
CAPE LOOKOUT     1200   67      10/  8/  9 1026.9
BEAUFORT LAB     1148   65 72   30/  5/  6 1027.2
30 SE NEW RVR IN 1108   74      70/ 12/ 16 1025.7
30 SE NEW RVR IN NOT AVBL
27 SE WRIGHTSVLE 1108   74 76   80/ 14/ 19 1025.6
5 SE WRIGHTSVLE  1108   72 74   70/ 14/ 21 1025.8
225 S CAPE HAT   1150   77 80   90/ 12/ 16 1025.2    4/ 8   3/ 8
41 SE CHARLESTON 1150   78 79   80/ 14/ 16 1023.7    4/ 8   3/ 8

$$




USA.gov is the U.S. government's official web portal to all federal, state and local government web resources and services.